Volver al catálogo

METEOR M2-2

ActivoMeteoSSO
NORAD 44387·PAYLOAD·🇷🇺 Russia

Lanzado Jul 5, 2019 desde Vostochny Cosmodrome

Loading…

Próximos Pases (próximas 24 horas)

TLE

ActualizadoSource: Space-Track

Época: Sep 14, 2026, 14:19 UTC

1 44387U 19038A   26257.59714525  .00000051  00000-0  41740-4 0  9993
2 44387  98.9239 246.2416 0002195 100.7998 259.3427 14.24385622374029

Sigue METEOR M2-2 en tiempo real con AllMySat

Download on the App Store